Regional Weather Roundup
Issued by NWS Charleston, SC

Current Version | Previous Version | Text Only | Print | Product List | Glossary Off
Versions: 1 2 3 4 5 6 7 8 9 10 11 12 13 14 15 16 17 18 19 20 21 22 23 24 25 26 27 28 29 30 31 32 33 34 35 36 37 38 39 40 41 42 43 44 45 46 47 48 49 50

000
ASUS42 KCHS 241826
RWRCHS

REGIONAL WEATHER ROUNDUP
NATIONAL WEATHER SERVICE CHARLESTON SC
200 PM EDT FRI APR 24 2015

NOTE: "FAIR" INDICATES FEW OR NO CLOUDS BELOW 12,000 FEET WITH NO
SIGNIFICANT WEATHER AND/OR OBSTRUCTIONS TO VISIBILITY.

NOT ALL STATIONS ARE QUALITY CONTROLLED BY THE NATIONAL
WEATHER SERVICE. USE DATA WITH CAUTION...ESPECIALLY
DEWPOINT OBSERVATIONS.

SCZ027-030-031-034>040-042>050-241900-
...SOUTHEAST SOUTH CAROLINA...

CITY           SKY/WX    TMP DP  RH WIND       PRES   REMARKS
N CHARLESTON   MOSUNNY   71  31  22 NW10      30.05F
6HR MIN TEMP:  57; 6HR MAX TEMP:  71;

WATERFRONT PRK   N/A     66 N/A N/A E13         N/A
MOUNT PLEASANT FAIR      66  39  37 MISG      30.05S
PINOPOLIS      NOT AVBL
MONCKS CORNER  FAIR      70  30  23 NW6       30.05F
SUMMERVILLE    FAIR      70  36  28 NE3       30.06F
BEAUFORT MCAS  SUNNY     70  31  23 CALM      30.06S
6HR MIN TEMP:  59; 6HR MAX TEMP:  71;

BEAUFORT ARPT  FAIR      70  37  30 E6        30.06S
HILTON HEAD IS SUNNY     68  39  34 E6        30.08R
WALTERBORO     CLEAR     70  32  24 CALM      30.06S
ALLENDALE      FAIR      70  32  24 CALM      30.04F

...SOUTHERN MIDLANDS AND PEE DEE...

CITY           SKY/WX    TMP DP  RH WIND       PRES   REMARKS
GEORGETOWN     NOT AVBL
KINGSTREE      NOT AVBL
ORANGEBURG     SUNNY     69  29  22 VRB3      30.05F
6HR MIN TEMP:  53; 6HR MAX TEMP:  69;

BARNWELL       FAIR      70  32  24 SE5       30.05F
AIKEN          FAIR      68  25  19 SE6       30.07F
MANNING        FAIR     N/A N/A N/A NW5       30.05F
COLUMBIA       MOSUNNY   69  28  21 E5        30.04F
6HR MIN TEMP:  48; 6HR MAX TEMP:  69;

SUMTER         SUNNY     67  28  23 VRB5      30.03F
6HR MIN TEMP:  52; 6HR MAX TEMP:  68;

FLORENCE       SUNNY     68  29  23 VRB5      30.05F
6HR MIN TEMP:  51; 6HR MAX TEMP:  68;

MYRTLE BEACH   SUNNY     68  25  19 N12       30.06F
N MYRTLE BEACH SUNNY     68  28  22 N13       30.03F
6HR MIN TEMP:  53; 6HR MAX TEMP:  68;


$$

GAZ063-065-086>088-099>101-113>116-118-119-134>141-150-241900-
...SOUTHEAST GEORGIA...

CITY           SKY/WX    TMP DP  RH WIND       PRES   REMARKS
SAVANNAH ARPT  MOSUNNY   71  32  23 CALM      30.06F
6HR MIN TEMP:  60; 6HR MAX TEMP:  73;

HUNTER AAF     SUNNY     71  40  32 E9        30.04S
6HR MIN TEMP:  62; 6HR MAX TEMP:  71;

FORT STEWART   MOSUNNY   73  38  28 S9        30.04F
6HR MIN TEMP:  62; 6HR MAX TEMP:  73;

STATESBORO       N/A     72  40  31 CALM      30.05F
SYLVANIA       CLEAR     72  41  32 CALM      30.06F
CLAXTON        FAIR      73  41  31 CALM      30.05F

...CSRA...CENTRAL AND FAR SOUTHEAST GEORGIA...

CITY           SKY/WX    TMP DP  RH WIND       PRES   REMARKS
THOMSON        SUNNY     72  40  31 SE5       30.09F
AUGUSTA-BUSH   SUNNY     71  35  26 W3        30.05F
6HR MIN TEMP:  49; 6HR MAX TEMP:  71;

AUGUSTA-DANIEL SUNNY     70  29  21 SE5       30.05F
SWAINSBORO     NOT AVBL
VIDALIA        SUNNY     73  41  31 E5        30.05F
EASTMAN        FAIR      76  43  30 CALM      30.06F
HAZLEHURST     FAIR      76  41  28 CALM      30.03F
ALMA           SUNNY     76  40  27 CALM      30.03F
WAYCROSS       SUNNY     80  49  32 SE6       30.02F
JESUP          FAIR      79  50  36 SE9       30.04F
BAXLEY         FAIR      77  41  27 N3        30.03F
BRUNSWICK      SUNNY     70  43  37 NE12G18   30.08S
SAINT SIMONS   SUNNY     69  46  43 NE13G21   30.08R
6HR MIN TEMP:  64; 6HR MAX TEMP:  71;


$$

SCZ027-028-034-036>038-045-046-048>050-GAZ119-141-241900-
...LAKE AND SUPPLEMENTAL COASTAL OBSERVATIONS...

STATION/POSITION TIME  TEMP    WIND        PRES    WAVE   SWELL
                       AIR SEA DIR/SP/G            HT/PER HT/PER/DIR
                 (UTC) (F)     (DEG/KT/KT) (MB)    (FT/S) (FT/S/D)
UPR LAKE MARION  NOT AVBL
WINYAH BAY       1700   61      90/  8     1017.0
LAKE MURRAY      1700   65     170/  4/  5 1017.9F
ACE BASIN NERRS  1745   72     340/  3     1018.0S
FORT PULASKI     1712   63 70   70/ 13/ 15 1018.8F
SAPELO ISLAND    1700   69      40/ 13     1018.0S

$$

ANZ835-935-AMZ111-154-330-350-352-354-370-450-454-472-241900-
...C-MAN AND BUOY OBSERVATIONS...

STATION/POSITION TIME  TEMP    WIND        PRES    WAVE   SWELL
                       AIR SEA DIR/SP/G            HT/PER HT/PER/DIR
                 (UTC) (F)     (DEG/KT/KT) (MB)    (FT/S) (FT/S/D)
BUOY 41004       1750   62 72   40/ 14/ 19 1017.5R   7/ 7   5/ 7
BUOY 41008       1750   64 69   60/ 16/ 19 1018.4R   5/ 6   2/110/15
FOLLY BEACH CMAN 1800   63      90/ 10/ 12 1017.9F
CAPERS NEARSHORE 1708   61      80/ 12/ 17   N/A
FRIPP NEARSHORE  1700   64      70/ 10/ 12 1017.8F


STATION/POSITION TIME  TEMP    WIND        PRES    WAVE   SWELL
                       AIR SEA DIR/SP/G            HT/PER HT/PER/DIR
                 (UTC) (F)     (DEG/KT/KT) (MB)    (FT/S) (FT/S/D)
5E ST. MARYS GA  1721      69                N/A     5/ 5   2/ 90/15
FRYING PAN BUOY  1750   60 71   20/ 10/ 14 1018.0R   5/ 7   5/ 50/ 7
BUOY 41025       1750   54 73  360/ 12/ 14 1015.9F   5/ 6   5/ 20/ 6
CAPE LOOKOUT NC  1800   62     310/  8/ 10 1015.6F
BUOY 41002       1750   67 71  350/ 17/ 21 1014.6R   7/ 7   3/ 10/13
BUOY 41010       1720   77 79   20/ 14/ 16 1014.5F
ST AUGUSTINE FL  1800   68 68  360/ 15/ 16 1018.0S


$$



USA.gov is the U.S. government's official web portal to all federal, state and local government web resources and services.